Satellite-Ground Cal/Val Site Overpasses Predictions

Prediction of Satellite NPP Overpassing Cal/Val Site: Antarctic Dome C

Ground Cal/Val Site Location: Latitude: -75.10, Longitude: 123.35; Satellite-Ground Site NADIR distance within 100 km.

Table of predicted overpasses for the next 14.0 days since TLE Epoch: 2/18/2023
Interval Starting Time Ending Time Minimum Distance Time Minimum Distance (km)
1 02/18/2023 07:20:37 02/18/2023 07:20:55 02/18/2023 07:20:46 78.98
2 02/20/2023 15:02:51 02/20/2023 15:03:14 02/20/2023 15:03:02 59.81
3 02/21/2023 14:43:59 02/21/2023 14:44:25 02/21/2023 14:44:12 49.36
4 02/22/2023 07:45:40 02/22/2023 07:46:02 02/22/2023 07:45:51 65.98
5 02/23/2023 07:26:49 02/23/2023 07:27:15 02/23/2023 07:27:02 42.12
6 02/25/2023 15:09:15 02/25/2023 15:09:21 02/25/2023 15:09:18 96.90
7 02/26/2023 14:50:12 02/26/2023 14:50:41 02/26/2023 14:50:27 14.28
8 02/28/2023 07:33:01 02/28/2023 07:33:30 02/28/2023 07:33:16 6.50
